Regional Weather Roundup
Issued by NWS

Home | Current Version | Previous Version | Text Only | Print | Product List | Glossary On
Versions: 1 2 3 4 5 6 7 8 9 10 11 12 13 14 15 16 17 18 19 20 21 22 23 24 25 26 27 28 29 30 31 32 33 34 35 36 37 38 39 40 41 42 43 44 45 46 47 48 49
000
ASUS42 KFFC 230303
RWRGA
WEATHER ROUNDUP FOR GEORGIA
NATIONAL WEATHER SERVICE PEACHTREE CITY GA
1100 PM EDT FRI MAY 22 2015

NOTE: "FAIR" INDICATES FEW OR NO CLOUDS BELOW 12,000 FEET WITH NO
SIGNIFICANT WEATHER AND/OR OBSTRUCTIONS TO VISIBILITY.

* = USE WITH CAUTION. THE STATIONS MARKED WITH AN ASTERISK MAY NOT
REPORT WEATHER SUCH AS PRECIPITATION, FOG, OR THUNDER AND ARE NOT
QUALITY CONTROLLED BY NWS.

THE REMARK "TC" DENOTES TEMPERATURE READING IN DEGREES CELSIUS.

GAZ001>058-230400-
NORTH GEORGIA

CITY           SKY/WX    TMP DP  RH WIND       PRES   REMARKS
ATLANTA        CLEAR     71  52  50 N5        30.26R
ATHENS         CLEAR     62  54  74 CALM      30.26R
CHAMBLEE       CLEAR     67  52  58 NW5       30.27R
PEACHTREE CITY CLEAR     60  55  83 CALM      30.26R
ROME           CLEAR     59  51  75 CALM      30.26R
WEST ATLANTA   CLEAR     63  54  72 CALM      30.26R
GAINESVILLE    CLEAR     64  52  64 CALM      30.29R
CARTERSVILLE   CLEAR     55  49  80 CALM      30.27R


CITY           SKY/WX    TMP DP  RH WIND       PRES   REMARKS
DALTON*        CLEAR     57  50  77 CALM      30.27R
MARIETTA       CLEAR     67  50  54 N3        30.26R
KENNESAW*      CLEAR     64  46  52 N3        30.26S
BLAIRSVILLE*     N/A     54  34  46 CALM      30.32R
$$

GAZ059>098-102>109-230400-
CENTRAL GEORGIA

CITY           SKY/WX    TMP DP  RH WIND       PRES   REMARKS
AUGUSTA-BUSH   CLEAR     59  54  83 S5        30.25R
AUGUSTA-DANIEL CLEAR     72  49  44 NE7       30.26R
COLUMBUS       CLEAR     70  54  56 CALM      30.22R
MACON          CLEAR     63  59  87 CALM      30.24R
ROBINS AFB     CLEAR     67  57  70 N2        30.23R


CITY           SKY/WX    TMP DP  RH WIND       PRES   REMARKS
LAGRANGE*      CLEAR     63  60  91 CALM      30.25R
SYLVANIA*      CLEAR     64  60  86 CALM      30.26R
MILLEDGEVILLE* CLEAR     64  59  82 CALM      30.25R
$$

GAZ099>101-110>166-230400-
SOUTH GEORGIA

CITY           SKY/WX    TMP DP  RH WIND       PRES   REMARKS
SAVANNAH       CLEAR     68  61  78 E3        30.25R
VALDOSTA       CLEAR     67  57  70 E5        30.21R
ALMA           CLEAR     69  62  78 E6        30.23R
FT STEWART     CLEAR     65  61  85 CALM      30.23R
ALBANY         CLEAR     68  54  60 CALM      30.22R
HUNTER AFB     CLEAR     68  62  81 E3        30.22R
MOODY AFB      CLEAR     71  58  62 E7        30.20R
BRUNSWICK      CLEAR     68  61  77 CALM      30.23S


CITY           SKY/WX    TMP DP  RH WIND       PRES   REMARKS
BAINBRIDGE*    CLEAR     73  61  64 CALM      30.20R
MOULTRIE*      CLEAR     68  55  64 CALM      30.21R
VIDALIA*       CLEAR     70  61  73 SE3       30.25R
WAYCROSS*      CLEAR     69  64  84 E5        30.23R
DOUGLAS*       CLEAR     72  63  73 SE5       30.24R
$$



USA.gov is the U.S. government's official web portal to all federal, state and local government web resources and services.